Regional Weather Roundup
Issued by NWS

Home | Current Version | Previous Version | Text Only | Print | Product List | Glossary On
Versions: 1 2 3 4 5 6 7 8 9 10 11 12 13 14 15 16 17 18 19 20 21 22 23 24 25 26 27 28 29 30 31 32 33 34 35 36 37 38 39 40 41 42 43 44 45 46 47 48 49 50
000
ASUS44 KOUN 300900
RWROK

WEATHER ROUNDUP FOR OKLAHOMA
NATIONAL WEATHER SERVICE NORMAN OK
400 AM CDT SAT MAY 30 2015

NOTE: "FAIR" INDICATES FEW OR NO CLOUDS BELOW 12,000 FEET WITH NO
      SIGNIFICANT WEATHER AND/OR OBSTRUCTIONS TO VISIBILITY.

OKZ001>007-009>012-014-015-017-301000-
NORTHWEST OKLAHOMA AND THE PANHANDLE

CITY           SKY/WX    TMP DP  RH WIND       PRES   REMARKS
GAGE           MOCLDY    58  53  84 N15G25    30.14R
GUYMON         CLOUDY    55  50  83 N17       30.20F
$$

OKZ016-021>023-033>039-044-045-301000-
SOUTHWEST OKLAHOMA

CITY           SKY/WX    TMP DP  RH WIND       PRES   REMARKS
LAWTON/REGL    CLOUDY    67  65  93 CALM      30.01R
LAWTON/FT SILL CLOUDY    69  67  96 NW2       30.00R
FREDERICK      CLOUDY    68  66  93 NE6       29.99S
CLINTON        MOCLDY    63  58  83 N12       30.10R
HOBART         CLOUDY    67  64  90 N10       30.06R
ALTUS AFB      CLOUDY    65  65 100 NE5       30.02R
$$

OKZ018>020-024>031-301000-
CENTRAL OKLAHOMA

CITY           SKY/WX    TMP DP  RH WIND       PRES   REMARKS
OKLAHOMA CITY  PTCLDY    62  61  96 SW3       30.01R FOG
OKC/WILEY POST MOCLDY    66  64  93 NW8       30.02R
OKC/TINKER AFB CLEAR     64  63  94 S3        30.00R FOG
STILLWATER     MOCLDY    63  63 100 N5        30.00R
GUTHRIE        PTCLDY    65  63  93 NW5       30.01R FOG
$$

OKZ008-013-054>072-301000-
NORTHEAST OKLAHOMA

CITY           SKY/WX    TMP DP  RH WIND       PRES   REMARKS
TULSA          PTCLDY    62  61  96 CALM      29.95F
TULSA/JONES    CLEAR     62  61  96 CALM      29.96F
PONCA CITY     CLEAR     62  59  90 N17G25    30.01F
BARTLESVILLE   PTCLDY    60  60 100 CALM      29.99F
MUSKOGEE       FOG       62  60  93 NW3       29.95F VSB 1/2
$$

OKZ032-040>043-046>053-073>077-301000-
SOUTH CENTRAL/SOUTHEAST OKLAHOMA

CITY           SKY/WX    TMP DP  RH WIND       PRES   REMARKS
MCALESTER      FOG       62  61  96 CALM      29.98R VSB 1/4
$$



USA.gov is the U.S. government's official web portal to all federal, state and local government web resources and services.